Location: Newark
(8.1700°N, 77.4300°E)
Time: 15:12:49
(UTC+00:00)

Hubble Space Telescope - Pass Details

Date: 31 August 2019
Orbit: 536 x 540 km, 28.5° (Epoch: 22 October)

Event Time Altitude Azimuth Distance (km) Brightness Sun altitude
Rises 13:26:31 0° 287° (WNW) 2,665 6.7 -7.5°
Reaches altitude 10° 13:28:53 10° 278° (W) 1,775 5.2 -8.1°
Maximum altitude 13:32:42 37° 211° (SSW) 838 2.0 -9.0°
Drops below altitude 10° 13:36:30 10° 142° (SE) 1,775 3.0 -10.0°
Enters shadow 13:37:05 - 140° (SE) 1,989 3.2 -10.1°
